* Astronomy

Members Login
Username 
 
Password 
    Remember Me  
Post Info TOPIC: Asteroid 2012 XS111


L

Posts: 131433
Date:
RE: Asteroid 2012 XS111
Permalink  
 


The 110 - 240 metre wide asteroid 2012 XS111 will make a close pass (51.1 lunar distances, 0.1312 AU) travelling at 11.17 km/second, to the Earth-Moon system on the 15th November 2014 @ 22:29 UT ±00:01. 

See more

The Lunar Distance (LD), the distance between Earth and the Moon, equals 384,401 km, (or 0.00256 AU).



__________________


L

Posts: 131433
Date:
Permalink  
 

Orbital elements:
2012 XS111                                          PHA, Earth MOID = 0.0481 AU
Epoch 2012 Sept. 30.0 TT = JDT 2456200.5                MPC
M  89.11299              (2000.0)            P               Q
n   1.45093901     Peri.  191.82561     -0.27471137     +0.95426266
a   0.7727457      Node    62.32593     -0.87096923     -0.19498021
e   0.5022238      Incl.    7.65491     -0.40736503     -0.22663958
P   0.68           H   22.0           G   0.15           U   9

MPEC 2012 - X67

The 110 - 250 metre wide asteroid 2012 XS111 will make a close pass (68.5 lunar distances, 0.1761 AU), travelling at 11.20 km/second, to the Earth-Moon system on the 13th December, 2012 @ 00:26 UT ±01:29. 

See more

The Lunar Distance (LD), the distance between Earth and the Moon, equals 384,401 km, (or 0.00256 AU).



__________________
Page 1 of 1  sorted by
 
Quick Reply

Please log in to post quick replies.



Create your own FREE Forum
Report Abuse
Powered by ActiveBoard